Location: Antin
(43.3330°N, 0.2804°E)
Time: 18:47:53
(UTC+00:00)

SME Rocket - Pass Details

Date: 14 December 2023
Orbit: 550 x 2645 km, 99.9° (Epoch: 20 February)

Event Time Altitude Azimuth Distance (km) Brightness Sun altitude
Rises 19:58:11 0° 202° (SSW) 3,601 7.2 -38.1°
Reaches altitude 10° 20:00:35 10° 214° (SSW) 2,887 6.7 -38.5°
Maximum altitude 20:06:24 31° 274° (W) 2,241 6.2 -39.5°
Drops below altitude 10° 20:14:43 10° 332° (NNW) 4,205 7.6 -41.1°
Sets 20:19:02 0° 342° (NNW) 5,540 8.2 -41.8°
